Flag for South Africa Weather past 2 weeks in Stellenbosch, South Africa

Now
66 °F

Clear.


Feels Like: 66 °F
Forecast: 48 / 68 °F
Wind: 8 mph from North

Location: Cape Town International Airport

Current Time: May 22, 2015 at 9:14:47 PM

Latest Report: May 22, 2015 at 8:00 PM


Visibility: 10 mi

Pressure: 29.95 "Hg

Humidity: 40%

Dew point: 41 °F

Location of StellenboschLocation

Historic Weather in Stellenbosch — Graph

°F

Stellenbosch temperature yesterday

Maximum temperature yesterday: 70 °F (at 1:00 PM)
Minimum temperature yesterday: 54 °F (at 12:00 AM)
Average temperature yesterday: 60 °F

Past Weeks' High & Low Weather Summary

 TemperatureHumidityPressure
High84 °F (May 22, 2:00 PM)100% (May 13, 6:00 AM)30.27 "Hg (May 13, 6:00 AM)
Low45 °F (May 17, 7:00 AM)24% (May 22, 4:00 PM)29.86 "Hg (May 18, 3:00 AM)
Average61 °F76%30.06 "Hg
* Reported May 7 8:00 PM — May 22 8:00 PM, Stellenbosch, Weather by CustomWeather, © 2015

Note: Actual official high and low records may vary slightly from our data, if they occured in-between our weather recording intervals... More about our weather records

Advertising

Stellenbosch weather history for previous 24 hours

 ConditionsComfort  
Time TempWeatherWind HumidityBarometerVisibility
8:00 PM
Fri, May 22
66 °FClear.8 mph40%29.95 "Hg10 mi
7:00 PM68 °FClear.8 mph35%29.95 "Hg10 mi
6:00 PM70 °FClear.6 mph35%29.92 "Hg10 mi
5:00 PM77 °FClear.7 mph26%29.95 "Hg10 mi
4:00 PM81 °FPassing clouds.8 mph24%29.95 "HgN/A
3:00 PM82 °FPassing clouds.7 mph26%29.95 "HgN/A
2:00 PM84 °FPassing clouds.5 mph31%29.95 "HgN/A
1:00 PM81 °FPassing clouds.5 mph34%29.98 "HgN/A
12:00 PM77 °FPassing clouds.3 mph42%30.01 "HgN/A
11:00 AM72 °FSunny.3 mph53%30.04 "Hg10 mi
10:00 AM64 °FPassing clouds.3 mph68%30.04 "HgN/A
9:00 AM57 °FSunny.1 mph82%30.07 "Hg10 mi
8:00 AM50 °FSunny.3 mph94%30.07 "Hg10 mi
7:00 AM48 °FClear.2 mph94%30.07 "Hg6 mi
6:00 AM48 °FFog.2 mph94%30.07 "Hg2 mi
5:00 AM52 °FPassing clouds.2 mph94%30.07 "HgN/A
4:00 AM55 °FPassing clouds.No wind88%30.09 "HgN/A
3:00 AM57 °FPassing clouds.5 mph82%30.12 "HgN/A
2:00 AM57 °FPassing clouds.3 mph77%30.15 "HgN/A
1:00 AM55 °FPassing clouds.3 mph82%30.18 "HgN/A
12:00 AM59 °FPassing clouds.5 mph77%30.18 "HgN/A
11:00 PM
Thu, May 21
61 °FPassing clouds.7 mph72%30.21 "HgN/A
10:00 PM61 °FPassing clouds.14 mph77%30.24 "HgN/A
9:00 PM63 °FPassing clouds.14 mph73%30.24 "HgN/A
Weather by CustomWeather, © 2015

See weather overviewHow to use our weather pages